Date String (YYYY-MM-DD hh:mm:ss) UTC,Instrument flags,Ambient pressure (hPa),Sample flow (lpm),Bypass flow (lpm),Sample temperature (°C),Ambient temperature (°C),ASC tube jacket temperature (°C),LED temperature (°C),Box temperature (°C),Sample RH (%),Span deviation,Mass concentration (μg/m³),Mass concentration (μg/m³),Mass concentration (μg/m³)
DateTimeUTC,F1_M11,P_M11,Q1_M11,Q2_M11,T1_M11,T2_M11,T3_M11,T4_M11,T5_M11,U1_M11,ZSPAN_M11,X0_M11,X2_M11,X1_M11
2023-02-14 19:00:00,,0802.4,5.00,0.00,21.8,20.3,00.0,30.6,23.6,12.4,0000.0,0017.20,0005.55,0004.27
2023-02-14 19:01:00,,0802.4,4.99,0.00,21.8,20.2,00.0,30.6,23.6,12.4,0000.0,0017.22,0005.54,0004.28
2023-02-14 19:02:00,,0802.4,4.99,0.00,21.8,20.2,00.0,30.6,23.6,12.3,0000.0,0017.36,0005.55,0004.29
2023-02-14 19:03:00,,0802.4,4.99,0.00,21.8,20.2,00.0,30.6,23.6,12.5,0000.0,0017.79,0005.53,0004.28
2023-02-14 19:04:00,,0802.5,5.00,0.00,21.8,20.2,00.0,30.6,23.6,12.5,0000.0,0018.30,0005.53,0004.29
2023-02-14 19:05:00,,0802.5,5.01,0.00,21.8,20.2,00.0,30.6,23.6,12.2,0000.0,0018.80,0005.52,0004.30
2023-02-14 19:06:00,,0802.4,4.99,0.00,21.8,20.3,00.0,30.6,23.6,12.5,0000.0,0018.93,0005.47,0004.31
2023-02-14 19:07:00,,0802.5,5.01,0.00,21.8,20.3,00.0,30.7,23.6,12.7,0000.0,0019.29,0005.43,0004.34
2023-02-14 19:08:00,,0802.4,5.00,0.00,21.8,20.3,00.0,30.7,23.6,13.0,0000.4,0019.67,0005.39,0004.36
2023-02-14 19:09:00,,0802.5,5.00,0.00,21.8,20.3,00.0,30.7,23.6,12.7,0000.0,0019.51,0005.44,0004.42
2023-02-14 19:10:00,,0802.6,5.00,0.00,21.8,20.2,00.0,30.7,23.6,12.7,0000.0,0018.61,0005.47,0004.46
2023-02-14 19:11:00,,0802.7,5.00,0.00,21.8,20.2,00.0,30.7,23.6,12.6,0000.0,0019.16,0005.54,0004.50
2023-02-14 19:12:00,,0802.7,5.01,0.00,21.8,20.2,00.0,30.7,23.6,12.9,0000.0,0019.47,0005.59,0004.53
2023-02-14 19:13:00,,0802.8,5.00,0.00,21.8,20.3,00.0,30.7,23.6,13.2,0000.0,0019.14,0005.62,0004.54
2023-02-14 19:14:00,,0802.8,4.99,0.00,21.8,20.4,00.0,30.7,23.7,13.3,-000.4,0018.25,0005.68,0004.56
2023-02-14 19:15:00,,0802.9,5.00,0.00,21.8,20.4,00.0,30.7,23.7,12.8,-000.5,0017.19,0005.72,0004.58
2023-02-14 19:16:00,,0802.9,5.00,0.00,21.8,20.4,00.0,30.7,23.7,12.6,-000.4,0016.39,0005.72,0004.60
2023-02-14 19:17:00,,0802.8,5.01,0.00,21.9,20.5,00.0,30.7,23.8,12.7,-000.2,0017.27,0005.77,0004.61
2023-02-14 19:18:00,,0802.8,4.98,0.00,21.9,20.6,00.0,30.7,23.8,12.6,-000.1,0016.81,0005.78,0004.60
2023-02-14 19:19:00,,0802.7,4.98,0.00,21.9,20.7,00.0,30.7,23.8,12.6,0000.0,0017.42,0005.80,0004.61
2023-02-14 19:20:00,,0802.7,5.01,0.00,21.9,20.7,00.0,30.7,23.8,12.9,0000.0,0017.91,0005.75,0004.58
2023-02-14 19:21:00,,0802.7,5.00,0.00,21.9,20.8,00.0,30.7,23.9,13.0,-000.2,0018.14,0005.73,0004.55
2023-02-14 19:22:00,,0802.7,5.00,0.00,22.0,20.8,00.0,30.7,23.9,13.0,-001.3,0017.73,0005.72,0004.53
2023-02-14 19:23:00,,0802.7,5.00,0.00,22.0,20.8,00.0,30.8,23.9,12.9,-001.4,0017.70,0005.72,0004.51
2023-02-14 19:24:00,,0802.7,5.00,0.00,22.0,20.8,00.0,30.8,23.9,12.7,-001.1,0018.54,0005.71,0004.50
2023-02-14 19:25:00,,0802.8,5.01,0.00,22.0,20.9,00.0,30.8,23.9,12.7,-000.4,0019.39,0005.72,0004.49
2023-02-14 19:26:00,,0802.8,5.00,0.00,22.0,20.9,00.0,30.8,24.0,12.9,-000.6,0019.77,0005.75,0004.48
2023-02-14 19:27:00,,0802.9,4.99,0.00,22.1,21.0,00.0,30.8,24.0,12.5,-000.4,0020.39,0005.79,0004.48
2023-02-14 19:28:00,,0803.1,5.00,0.00,22.1,21.0,00.0,30.8,24.1,12.5,-000.4,0020.09,0005.81,0004.46
2023-02-14 19:29:00,,0803.1,5.01,0.00,22.1,21.1,00.0,30.8,24.1,12.3,-000.7,0021.01,0005.81,0004.43
2023-02-14 19:30:00,,0803.0,5.00,0.00,22.2,21.1,00.0,30.9,24.1,12.6,-000.0,0020.21,0005.77,0004.40
2023-02-14 19:31:00,,0803.0,5.00,0.00,22.2,21.1,00.0,30.9,24.1,11.9,-001.1,0020.16,0005.75,0004.37
2023-02-14 19:32:00,,0802.8,5.00,0.00,22.2,21.2,00.0,30.9,24.2,09.1,0000.0,0019.79,0005.60,0004.26
2023-02-14 19:33:00,,0802.8,4.99,0.00,22.2,21.2,00.0,30.9,24.2,08.5,0000.0,0018.82,0005.34,0004.11
2023-02-14 19:34:00,,0802.7,5.00,0.00,22.2,21.2,00.0,30.9,24.2,08.6,0000.0,0017.80,0005.06,0003.96
2023-02-14 19:35:00,,0802.6,5.01,0.00,22.3,21.2,00.0,31.0,24.2,09.4,0000.0,0016.91,0004.84,0003.82
2023-02-14 19:36:00,,0802.5,5.00,0.00,22.3,21.3,00.0,31.0,24.2,09.9,0000.0,0016.14,0004.69,0003.74
2023-02-14 19:37:00,,0802.3,4.99,0.00,22.3,21.3,00.0,31.0,24.2,10.1,0000.0,0015.41,0004.52,0003.64
2023-02-14 19:38:00,,0802.3,5.00,0.00,22.3,21.2,00.0,31.0,24.2,10.9,0000.0,0014.82,0004.38,0003.58
2023-02-14 19:39:00,,0802.4,5.00,0.00,22.3,21.2,00.0,31.0,24.2,10.3,0000.0,0014.14,0004.24,0003.51
2023-02-14 19:40:00,,0802.6,5.00,0.00,22.3,21.1,00.0,31.0,24.1,11.7,0000.0,0013.66,0004.25,0003.50
2023-02-14 19:41:00,,0802.8,5.00,0.00,22.3,20.9,00.0,31.1,24.1,12.0,0000.0,0013.82,0004.29,0003.52
2023-02-14 19:42:00,,0802.8,5.00,0.00,22.2,20.7,00.0,31.1,24.0,12.1,0000.0,0012.92,0004.31,0003.54
2023-02-14 19:43:00,,0803.0,5.02,0.00,22.2,20.5,00.0,31.0,23.9,12.2,0000.0,0014.02,0004.49,0003.65
2023-02-14 19:44:00,,0803.1,4.98,0.00,22.2,20.4,00.0,31.0,23.9,12.3,0000.0,0015.02,0004.78,0003.82
2023-02-14 19:45:00,,0803.2,5.00,0.00,22.1,20.4,00.0,31.0,23.8,12.1,0000.0,0015.74,0005.02,0003.98
2023-02-14 19:46:00,,0803.1,5.00,0.00,22.1,20.2,00.0,31.0,23.7,11.4,0000.0,0015.50,0005.20,0004.11
2023-02-14 19:47:00,,0803.2,5.00,0.00,22.0,20.2,00.0,31.0,23.7,09.3,0000.0,0014.95,0005.20,0004.11
2023-02-14 19:48:00,,0803.1,5.00,0.00,22.0,20.1,00.0,31.0,23.6,08.1,0000.0,0014.72,0005.08,0004.04
2023-02-14 19:49:00,,0803.1,5.00,0.00,22.0,20.1,00.0,31.0,23.6,07.7,0000.0,0013.83,0004.90,0003.92
2023-02-14 19:50:00,,0803.0,4.99,0.00,21.9,20.1,00.0,31.0,23.7,07.6,0000.0,0012.86,0004.75,0003.81
2023-02-14 19:51:00,,0803.0,5.02,0.00,21.9,20.1,00.0,31.0,23.7,07.6,0000.0,0011.10,0004.49,0003.66
2023-02-14 19:52:00,,0802.9,5.00,0.00,21.9,20.1,00.0,30.9,23.7,07.6,0000.0,0010.05,0004.22,0003.49
2023-02-14 19:53:00,,0802.9,5.00,0.00,21.9,20.1,00.0,30.9,23.7,07.5,0000.0,0010.02,0003.97,0003.32
2023-02-14 19:54:00,,0802.8,4.99,0.00,21.9,20.2,00.0,30.9,23.8,07.6,0000.0,0008.63,0003.67,0003.14
2023-02-14 19:55:00,,0802.8,5.00,0.00,21.9,20.1,00.0,30.9,23.7,07.7,0000.0,0008.14,0003.43,0002.90
2023-02-14 19:56:00,,0802.5,5.01,0.00,21.9,20.1,00.0,30.9,23.7,07.6,0000.0,0007.20,0003.15,0002.61
2023-02-14 19:57:00,,0802.8,5.01,0.00,21.9,20.1,00.0,30.9,23.6,07.4,0000.0,0007.69,0002.83,0002.30
2023-02-14 19:58:00,,0802.6,4.99,0.00,21.9,20.1,00.0,30.9,23.6,07.6,0000.0,0007.52,0002.61,0002.16
2023-02-14 19:59:00,,0802.6,5.00,0.00,21.9,20.1,00.0,30.8,23.5,07.6,0000.0,0007.50,0002.60,0002.13
